COSMOS 1989 (ETALON 1)

Last updated on July 6, 2021, 3:43 p.m. UTC

1 19751U 89001C   21187.12636309 -.00000000  00000-0  00000+0 0  9990
2 19751  64.2348 134.2955 0023280 212.1664 164.7069  2.13156354252921
UTC
Height (km)
Latitude
Longitude
Inclination
Orbital Period
UTC large
Height (km)
Speed (km/s)
/
Latitude / Longitude
Inclination (degrees)
Orbital Period (minutes)
Azimuth
Elevation
Range (km)
Doppler Factor
iOS Compass Heading
iOS Angle